Regional Weather Roundup
Issued by NWS

Home | Current Version | Previous Version | Graphics & Text | Print | Product List | Glossary On
Versions: 1 2 3 4 5 6 7 8 9 10 11 12 13 14 15 16 17 18 19 20 21 22 23 24 25 26 27 28 29 30 31 32 33 34 35 36 37 38 39 40 41 42 43 44 45 46 47 48 49 50
000
ASUS43 KIND 300309
RWRIN

WEATHER ROUNDUP FOR INDIANA
NATIONAL WEATHER SERVICE INDIANAPOLIS IN
1100 PM EDT FRI APR 29 2016

NOTE: "FAIR" INDICATES FEW OR NO CLOUDS BELOW 12,000 FEET WITH NO
SIGNIFICANT WEATHER AND/OR OBSTRUCTIONS TO VISIBILITY.

* - STATION DOES NOT REPORT WEATHER SUCH AS PRECIPITATION OR FOG.

+ - STATION NOT QUALITY CONTROLLED BY THE NATIONAL WEATHER SERVICE.
    USE DATA WITH CAUTION...ESPECIALLY DEWPOINT AND RELATIVE
    HUMIDITY OBSERVATIONS.

INZ001>003-010>013-019-020-300400-
NORTHWEST INDIANA

CITY           SKY/WX    TMP DP  RH WIND       PRES   REMARKS
GARY /AIRPORT/ CLOUDY    45  45 100 NE7       30.15S
KNOX *+        CLOUDY    45  39  81 NW3       30.13S
LA PORTE +     CLOUDY    46  46 100 N3        30.13F
MICHIGAN CITY+ CLOUDY    43  43 100 CALM      30.13F
MONTICELLO +   CLOUDY    48  43  82 NE5       30.11S
RENSSELAER +   CLOUDY    46  45  93 NE7       30.12S
VALPARAISO     CLOUDY    43  40  89 NE5       30.14S

$$

LMZ046-743>745-300400-
SOUTHERN LAKE MICHIGAN

STATION/POSITION TIME  TEMP    WIND        PRES    WAVE
                       AIR SEA DIR/SP/G            HT
                 (UTC) (F)     (DEG/KT/KT) (MB)    (FT)
BURNS HARBOR     0300   44      50/  9/ 12 1020.7F
MICHIGAN CITY    0200   42      10/  9/ 10   N/A

$$

INZ004-005-014>016-021>024-300400-
NORTH CENTRAL INDIANA

CITY           SKY/WX    TMP DP  RH WIND       PRES   REMARKS
GOSHEN         CLOUDY    50  45  83 NE3       30.13R
LOGANSPORT +   PTCLDY    48  45  87 N3        30.12S
PERU/GRISSOM   CLOUDY    51  47  86 E7        30.09S
ROCHESTER +    CLOUDY    52  48  87 CALM      30.12S
SOUTH BEND     CLOUDY    47  44  90 N3        30.13F
WARSAW +       CLOUDY    50  45  81 E5        30.12S

$$

INZ006>009-017-018-025>027-300400-
NORTHEAST INDIANA

CITY           SKY/WX    TMP DP  RH WIND       PRES   REMARKS
ANGOLA *+      CLOUDY    48  37  66 E8        30.14S
AUBURN +       CLOUDY    50  43  76 E7        30.15R
FORT WAYNE     CLOUDY    50  46  86 SE3       30.13S
HUNTINGTON +   CLOUDY    51  45  81 CALM      30.12F

$$

INZ028-029-035-036-043>045-051>053-300400-
WEST CENTRAL INDIANA

CITY           SKY/WX    TMP DP  RH WIND       PRES   REMARKS
CRAWFORDSVL +  CLOUDY    51  49  91 NE9       30.08S
GREENCASTLE +  CLOUDY    55  52  88 NE9       30.08S
LAFAYETTE      CLOUDY    49  45  86 NE7       30.09F
TERRE HAUTE    CLOUDY    58  49  72 NE12      30.04F

$$

INZ030>032-037>040-046>048-054>057-064-065-300400-
CENTRAL INDIANA

CITY           SKY/WX    TMP DP  RH WIND       PRES   REMARKS
CP ATTERBURY + CLOUDY    59  50  72 E7        30.07F
FISHERS *+     CLOUDY    54  50  87 NE7       30.10
FRANKFORT +      N/A     51  41  69 NE3       30.11F
GREENWOOD *+   CLOUDY    57  48  72 NE9       30.08S
INDIANAPOLIS   CLOUDY    57  47  69 NE12      30.07R
-EAGLE CREEK   CLOUDY    57  47  69 NE7       30.08S
KOKOMO *+      CLOUDY    52  45  76 E6        30.10F
MARION +       CLOUDY    50  45  81 E8        30.11F
SHELBYVILLE    PTCLDY    58  50  75 E15       30.07S
ZIONSVILLE +   CLOUDY    53  47  82 NE8       30.10S

$$

INZ033-034-041-042-049-050-058-059-300400-
EAST CENTRAL INDIANA

CITY           SKY/WX    TMP DP  RH WIND       PRES   REMARKS
MUNCIE         PTCLDY    51  46  83 E7        30.12S

$$

INZ060-061-067>069-081>083-085>088-300400-
SOUTHWEST INDIANA

CITY           SKY/WX    TMP DP  RH WIND       PRES   REMARKS
EVANSVILLE     CLOUDY    62  53  72 NE7       30.00S
HUNTINGBURG *+ CLOUDY    63  52  67 E6        30.01F
WASHINGTON +   CLOUDY    61  57  85 E8        30.01F

$$

INZ062-063-066-070>080-084-089>092-300400-
SOUTH CENTRAL AND SOUTHEAST INDIANA

CITY           SKY/WX    TMP DP  RH WIND       PRES   REMARKS
BEDFORD +      CLOUDY    61  57  88 NE8       30.02F
BLOOMINGTON    CLOUDY    61  47  59 NE7       30.05F
MADISON *+     CLOUDY    61  50  67 NE3       30.08F
NORTH VERNON + CLOUDY    61  57  88 CALM      30.07F
SEYMOUR +      CLOUDY    63  52  67 E6        30.05F

$$





USA.gov is the U.S. government's official web portal to all federal, state and local government web resources and services.